Weather in Novyy Mir

Russia / Khabarovsk Krai     50°27′22″N   136°57′50″E
temp.,
°C
wind,
m/s
gust,
m/s
humid.,
%
clouds,
%
prec.,
mm/h
press.,
hPa
HPBL,
m
5 august, thu
thu501:00+13n51294100 0.3 1005466
04:00+12n41095100 0.8 1006415
07:00+13n4995100 0.1 1006398
10:00+15n4685100 0.1 1006506
13:00+18ne237598 0.3 1005625
16:00+20nne226888 0.3 1005922
19:00+18n3481100 0.0 1005252
22:00+16n348798 0.0 1005130
6 august, fri
fri601:00+16n3688100 0.0 1004211
04:00+15n3792100 0.0 1004256
07:00+15n3792100 0.0 1004284
10:00+16n3694100 0.4 1004340
13:00+16n3697100 1.1 1004345
16:00+16n3696100 3.3 1004331
19:00+16n3696100 0.0 1005334
22:00+15n3897100 0.0 1006334
7 august, sat
sat701:00+15n3897100 0.0 1007349
04:00+14n499699 0.0 1008396
07:00+14n51095100 0.0 1010420
10:00+14n61092100 0.0 1011502
13:00+15n71288100 0.0 1012677
16:00+15n71185100 0.0 1013823
19:00+15n71278100 0.1 1014832
22:00+14nne61076100 0.4 1016576
8 august, sun
sun801:00+14nne61065100 0.0 1017673
04:00+12nne51088100 0.7 1019591
07:00+11nne51095100 1.7 1020438
10:00+11nne4894100 2.2 1021467
13:00+12n3891100 0.2 1021438
16:00+13nnw2388100 0.2 1020125
19:00+13n2284100 0.0 101935
22:00+12n41180100 0.0 1019366
9 august, mon
mon901:00+12n497899 0.0 1019300
04:00+10n378787 0.0 1018178
07:00+11n388483 0.0 1019267
10:00+15nne466596 0.0 1018730
13:00+19ne444993 0.0 10171349
16:00+21ne344369 0.0 10161509
19:00+18ne116188 0.0 101615
22:00+13nne226948 0.0 101711